Location: Brachbach
(49.1847°N, 9.7240°E)
Time: 22:58:19
(UTC+00:00)

EO-79 - Visible Passes

Search period start: 12 March 2026 00:00
Search period end: 22 March 2026 00:00
Orbit: 510 x 522 km, 98.1° (Epoch: 12 March)

Date Brightness Start Highest point End Pass type
(mag) Time Alt. Az. Time Alt. Az. Time Alt. Az.
13 Mar ? 17:49:23 10° WSW 17:50:45 12° W 17:52:07 10° WNW visible
15 Mar ? 04:59:30 10° NNE 05:02:54 31° E 05:06:16 10° SSE visible
16 Mar ? 04:45:03 10° NE 04:48:03 22° E 04:51:00 10° SSE visible
17 Mar ? 04:30:49 10° NE 04:33:08 16° E 04:35:26 10° SE visible
18 Mar ? 04:17:15 10° ENE 04:18:10 11° E 04:19:05 10° ESE visible
